N784HA KMEM-KMEM

Flight info

Callsign N784HA
Flight time 0h 10m
Altitude VFR/020
Route
Aircraft PA24/L-DOV/C

Departure

Time 2026-05-05 01:14
Airport Memphis International Airport (KMEM)

Arrival

Time 2026-05-05 01:25
Airport Memphis International Airport (KMEM)
Time Latitude Longitude Altitude Speed Heading
2026-05-05 01:07 35.05434 -89.98254 325 ft 0 kts 271°
2026-05-05 01:09 35.05434 -89.98259 325 ft 7 kts 272°
2026-05-05 01:09 35.05471 -89.98313 325 ft 11 kts 317°
2026-05-05 01:09 35.05548 -89.98382 325 ft 16 kts 326°
2026-05-05 01:10 35.05565 -89.98488 325 ft 14 kts 249°
2026-05-05 01:10 35.05428 -89.98505 325 ft 28 kts 178°
2026-05-05 01:10 35.05207 -89.98514 325 ft 35 kts 179°
2026-05-05 01:10 35.04979 -89.98593 326 ft 30 kts 208°
2026-05-05 01:11 35.04941 -89.98633 326 ft 0 kts 239°
2026-05-05 01:12 35.04938 -89.98647 327 ft 13 kts 263°
2026-05-05 01:12 35.04804 -89.98743 327 ft 10 kts 177°
2026-05-05 01:13 35.04802 -89.98743 327 ft 0 kts 177°
2026-05-05 01:13 35.04689 -89.98740 326 ft 52 kts 178°
2026-05-05 01:13 35.04194 -89.98703 455 ft 82 kts 177°
2026-05-05 01:14 35.03566 -89.98674 698 ft 94 kts 180°
2026-05-05 01:14 35.02939 -89.98709 1079 ft 90 kts 191°
2026-05-05 01:14 35.02701 -89.99406 1223 ft 110 kts 291°
2026-05-05 01:14 35.03111 -89.99807 1351 ft 125 kts 340°
2026-05-05 01:15 35.03256 -90.00410 1471 ft 113 kts 63°
2026-05-05 01:15 35.03896 -90.00202 1547 ft 140 kts
2026-05-05 01:15 35.05176 -90.00019 1599 ft 152 kts
2026-05-05 01:15 35.05876 -89.99941 1627 ft 149 kts
2026-05-05 01:16 35.06893 -89.99892 1688 ft 144 kts 359°
2026-05-05 01:16 35.07903 -89.99838 1729 ft 144 kts 358°
2026-05-05 01:16 35.08549 -89.99243 1458 ft 120 kts 85°
2026-05-05 01:16 35.08132 -89.98590 1114 ft 92 kts 169°
2026-05-05 01:17 35.07523 -89.98610 921 ft 90 kts 189°
2026-05-05 01:17 35.06894 -89.98722 817 ft 92 kts 188°
2026-05-05 01:17 35.06253 -89.98735 676 ft 89 kts 181°
2026-05-05 01:17 35.05636 -89.98744 555 ft 89 kts 181°
2026-05-05 01:18 35.04985 -89.98733 414 ft 91 kts 180°
2026-05-05 01:18 35.04463 -89.98719 325 ft 61 kts 182°
2026-05-05 01:18 35.04006 -89.98721 354 ft 82 kts 180°
2026-05-05 01:18 35.03371 -89.98907 464 ft 96 kts 219°
2026-05-05 01:19 35.03217 -89.99636 550 ft 110 kts 297°
2026-05-05 01:19 35.03976 -89.99862 621 ft 109 kts
2026-05-05 01:19 35.04695 -89.99750 783 ft 101 kts
2026-05-05 01:19 35.05398 -89.99710 1009 ft 100 kts 359°
2026-05-05 01:20 35.06172 -89.99695 1012 ft 114 kts 356°
2026-05-05 01:20 35.06925 -89.99747 1173 ft 103 kts 352°
2026-05-05 01:20 35.07683 -89.99786 1245 ft 117 kts 357°
2026-05-05 01:20 35.08496 -90.00023 1382 ft 134 kts 292°
2026-05-05 01:21 35.08234 -89.99969 1375 ft 140 kts 42°
2026-05-05 01:21 35.09271 -89.99999 1473 ft 144 kts 355°
2026-05-05 01:21 35.10227 -90.00000 1501 ft 134 kts 357°
2026-05-05 01:21 35.11140 -89.99882 1466 ft 132 kts 26°
2026-05-05 01:22 35.11527 -89.98933 1362 ft 126 kts 102°
2026-05-05 01:22 35.11006 -89.98312 1308 ft 110 kts 187°
2026-05-05 01:22 35.10259 -89.98502 1252 ft 104 kts 196°
2026-05-05 01:22 35.09565 -89.98637 1172 ft 103 kts 182°
2026-05-05 01:23 35.08911 -89.98686 1118 ft 88 kts 187°
2026-05-05 01:23 35.08300 -89.98745 1029 ft 84 kts 188°
2026-05-05 01:23 35.07743 -89.98763 888 ft 79 kts 184°
2026-05-05 01:23 35.07191 -89.98762 815 ft 79 kts 184°
2026-05-05 01:24 35.06633 -89.98762 747 ft 80 kts 180°
2026-05-05 01:24 35.06063 -89.98745 651 ft 83 kts 181°
2026-05-05 01:24 35.05547 -89.98744 489 ft 62 kts 180°
2026-05-05 01:24 35.05148 -89.98735 411 ft 54 kts 182°
2026-05-05 01:25 35.04794 -89.98732 335 ft 46 kts 180°
2026-05-05 01:25 35.04509 -89.98730 325 ft 47 kts 179°
2026-05-05 01:25 35.04017 -89.98729 426 ft 77 kts 191°
2026-05-05 01:25 35.03780 -89.99245 687 ft 90 kts 278°
2026-05-05 01:26 35.04056 -89.99647 845 ft 104 kts 324°
2026-05-05 01:26 35.05137 -89.99892 1107 ft 124 kts 354°
2026-05-05 01:26 35.05722 -89.99926 1222 ft 131 kts 354°
2026-05-05 01:26 35.07005 -89.99950 1509 ft 137 kts 359°
2026-05-05 01:27 35.07948 -89.99886 1751 ft 130 kts
2026-05-05 01:27 35.08486 -89.99588 1651 ft 130 kts 43°
2026-05-05 01:27 35.08443 -89.98486 1390 ft 100 kts 170°
2026-05-05 01:27 35.07826 -89.98616 1193 ft 86 kts 200°
2026-05-05 01:28 35.07272 -89.98720 930 ft 77 kts 186°
2026-05-05 01:28 35.06757 -89.98746 754 ft 71 kts 182°
2026-05-05 01:28 35.06280 -89.98741 663 ft 72 kts 183°
2026-05-05 01:28 35.05954 -89.98753 569 ft 66 kts 184°
2026-05-05 01:29 35.05524 -89.98750 427 ft 57 kts 179°
2026-05-05 01:29 35.05142 -89.98742 352 ft 43 kts 178°
2026-05-05 01:29 35.04909 -89.98718 328 ft 19 kts 137°
2026-05-05 01:29 35.04939 -89.98641 327 ft 10 kts 61°
2026-05-05 01:30 35.04949 -89.98623 326 ft 11 kts 51°
2026-05-05 01:30 35.05127 -89.98520 325 ft 33 kts 15°
2026-05-05 01:30 35.05312 -89.98511 325 ft 23 kts 360°
2026-05-05 01:30 35.05442 -89.98513 325 ft 15 kts 359°
2026-05-05 01:31 35.05575 -89.98510 325 ft 21 kts 36°
2026-05-05 01:31 35.05572 -89.98382 325 ft 9 kts 158°
2026-05-05 01:31 35.05520 -89.98353 325 ft 8 kts 178°
2026-05-05 01:31 35.05457 -89.98366 325 ft 10 kts 190°
2026-05-05 01:32 35.05418 -89.98375 325 ft 0 kts 154°